TimePDT,TemperatureF,Dew PointF,Humidity,Sea Level PressureIn,VisibilityMPH,Wind Direction,Wind SpeedMPH,Gust SpeedMPH,PrecipitationIn,Events,Conditions,WindDirDegrees,DateUTC
12:53 AM,57.0,50.0,77,29.78,10.0,East,11.5,-,N/A,,Overcast,90,2011-10-03 07:53:00
1:53 AM,57.9,48.9,72,29.77,10.0,ESE,13.8,21.9,N/A,,Overcast,120,2011-10-03 08:53:00
2:53 AM,57.0,50.0,77,29.77,10.0,SSE,11.5,20.7,N/A,,Overcast,150,2011-10-03 09:53:00
3:53 AM,57.0,51.1,81,29.77,10.0,SSE,13.8,18.4,0.00,,Overcast,150,2011-10-03 10:53:00
4:53 AM,53.1,48.9,86,29.79,9.0,SW,3.5,-,N/A,,Overcast,230,2011-10-03 11:53:00
5:02 AM,53.6,48.2,82,29.79,9.0,SSW,3.5,-,N/A,,Overcast,210,2011-10-03 12:02:00
5:53 AM,52.0,48.9,89,29.79,6.0,ENE,3.5,-,0.00,Rain,Light Rain,70,2011-10-03 12:53:00
7:50 AM,53.6,51.8,94,29.78,10.0,ESE,5.8,-,0.00,,Overcast,110,2011-10-03 14:50:00
7:53 AM,54.0,51.1,90,29.79,10.0,SE,3.5,-,0.00,,Overcast,140,2011-10-03 14:53:00
8:53 AM,55.9,52.0,87,29.79,10.0,Calm,Calm,-,N/A,,Overcast,0,2011-10-03 15:53:00
9:53 AM,55.9,52.0,87,29.79,10.0,ESE,6.9,-,N/A,,Overcast,120,2011-10-03 16:53:00
10:53 AM,55.9,51.1,84,29.79,10.0,SE,11.5,-,N/A,,Overcast,140,2011-10-03 17:53:00
11:53 AM,55.9,52.0,87,29.79,10.0,SE,10.4,-,N/A,,Overcast,140,2011-10-03 18:53:00
12:23 PM,55.4,51.8,88,29.80,10.0,SE,9.2,-,N/A,,Scattered Clouds,140,2011-10-03 19:23:00
12:53 PM,57.0,52.0,83,29.81,10.0,SE,6.9,-,N/A,,Clear,140,2011-10-03 19:53:00
1:53 PM,57.0,51.1,81,29.80,10.0,ESE,4.6,-,N/A,,Partly Cloudy,120,2011-10-03 20:53:00
2:53 PM,57.9,51.1,78,29.81,10.0,Calm,Calm,-,N/A,,Mostly Cloudy,0,2011-10-03 21:53:00
3:53 PM,61.0,51.1,70,29.80,10.0,SE,8.1,-,N/A,,Clear,140,2011-10-03 22:53:00
4:53 PM,57.9,50.0,75,29.80,10.0,South,8.1,-,N/A,,Mostly Cloudy,170,2011-10-03 23:53:00
6:53 PM,55.0,48.9,80,29.80,10.0,SSE,5.8,-,N/A,,Mostly Cloudy,150,2011-10-04 01:53:00
7:53 PM,53.1,48.9,86,29.80,10.0,Calm,Calm,-,N/A,,Overcast,0,2011-10-04 02:53:00
8:53 PM,53.1,48.9,86,29.78,10.0,Calm,Calm,-,N/A,,Mostly Cloudy,0,2011-10-04 03:53:00
9:53 PM,54.0,48.9,83,29.77,10.0,SSE,5.8,-,N/A,,Clear,160,2011-10-04 04:53:00
10:53 PM,53.1,48.0,83,29.77,10.0,SSE,4.6,-,N/A,,Mostly Cloudy,150,2011-10-04 05:53:00
11:16 PM,53.6,48.2,82,29.76,10.0,SE,4.6,-,N/A,,Overcast,140,2011-10-04 06:16:00
11:53 PM,53.1,48.0,83,29.75,10.0,Calm,Calm,-,N/A,,Mostly Cloudy,0,2011-10-04 06:53:00